Fairbanks Eiels, AK

4:47 AM AKST on December 09, 2019 (GMT -0900)
Eielson Air Force Base

Weather History for PAEI - October, 2019

Change the Weather History Date:

Thursday, October 3, 2019

  Actual Average Record
Temperature  
Mean Temperature 36 °F -  
Max Temperature 40 °F 40 °F 63 °F (1950)
Min Temperature 31 °F 25 °F 0 °F (1974)
Degree Days  
Heating Degree Days 28    
Moisture  
Dew Point 33 °F    
Average Humidity 89    
Maximum Humidity 93    
Minimum Humidity 59    
Precipitation  
Precipitation 0.03 in - - ()
Sea Level Pressure  
Sea Level Pressure 30.00 in    
Wind  
Wind Speed 5 mph (SE)    
Max Wind Speed 8 mph    
Max Gust Speed -    
Visibility 8 miles    
Events Rain    
Averages and records for this station are not official NWS values.
T = Trace of Precipitation, MM = Missing Value Source: NWS Daily Summary

Daily Weather History Graph

Daily Weather History Graph

Search for Another Location

Airport or City:

Astronomy

Oct. 03, 2019 Rise Set
Actual Time 8:03 AM AKDT 7:09 PM AKDT
Civil Twilight 7:15 AM AKDT 7:57 PM AKDT
Nautical Twilight 6:18 AM AKDT 8:54 PM AKDT
Astronomical Twilight 5:16 AM AKDT 9:55 PM AKDT
Moon 3:59 PM AKDT (10/3) 8:39 PM AKDT (10/3)
Length of Visible Light 12h 42m
Length of Day
11h 05m
Waxing Crescent, 31% of the Moon is Illuminated
Oct 3
Waxing Crescent
Oct 5
First Quarter
Oct 13
Full
Oct 21
Last Quarter
Oct 27
New

Hourly Weather History & Observations

Time (AKDT) Temp. Windchill Dew Point Humidity Pressure Visibility Wind Dir Wind Speed Gust Speed Precip Events Conditions
12:41 AM 33.8 °F 29.6 °F 32.0 °F 93% 29.98 in 10.0 mi SE 4.6 mph - N/A   Overcast
12:56 AM 33.4 °F 28.1 °F 31.6 °F 93% 29.99 in 10.0 mi SSE 5.8 mph - N/A   Overcast
1:56 AM 34.5 °F 30.4 °F 32.7 °F 93% 29.99 in 10.0 mi SE 4.6 mph - N/A   Overcast
2:56 AM 32.9 °F 28.5 °F 31.1 °F 93% 29.99 in 10.0 mi SSE 4.6 mph - N/A   Overcast
3:11 AM 32.0 °F 27.5 °F 30.2 °F 93% 29.99 in 10.0 mi SSE 4.6 mph - N/A   Overcast
3:23 AM 32.0 °F 26.4 °F 30.2 °F 93% 29.99 in 10.0 mi SSE 5.8 mph - N/A   Scattered Clouds
3:56 AM 32.0 °F 26.4 °F 30.2 °F 93% 29.99 in 10.0 mi SSE 5.8 mph - N/A   Scattered Clouds
4:56 AM 32.2 °F 27.7 °F 30.4 °F 93% 30.00 in 10.0 mi ESE 4.6 mph - N/A   Scattered Clouds
5:11 AM 32.0 °F 25.6 °F 28.4 °F 87% 30.00 in 10.0 mi SSE 6.9 mph - N/A   Mostly Cloudy
5:56 AM 32.7 °F 28.3 °F 30.6 °F 92% 30.00 in 10.0 mi ESE 4.6 mph - N/A   Mostly Cloudy
6:56 AM 33.6 °F 30.6 °F 31.5 °F 92% 30.00 in 10.0 mi SSW 3.5 mph - N/A   Mostly Cloudy
7:41 AM 33.8 °F 29.6 °F 30.2 °F 87% 30.01 in 10.0 mi SSW 4.6 mph - N/A   Overcast
7:56 AM 33.1 °F 28.7 °F 31.3 °F 93% 30.01 in 10.0 mi SSW 4.6 mph - N/A   Overcast
8:42 AM 33.8 °F 30.8 °F 32.0 °F 93% 30.01 in 10.0 mi SSW 3.5 mph - N/A   Light Drizzle
8:56 AM 33.6 °F - 31.8 °F 93% 30.01 in 5.0 mi Calm Calm - 0.00 in Rain Light Rain
9:51 AM 33.8 °F 29.6 °F 32.0 °F 93% 30.01 in 5.0 mi ESE 4.6 mph - N/A Rain Light Rain
9:56 AM 33.6 °F 29.4 °F 31.8 °F 93% 30.01 in 5.0 mi East 4.6 mph - 0.01 in Rain Light Rain
10:34 AM 35.6 °F 32.8 °F 33.8 °F 93% 30.01 in 5.0 mi SE 3.5 mph - N/A Rain Light Rain
10:49 AM 35.6 °F 32.8 °F 33.8 °F 93% 30.01 in 5.0 mi East 3.5 mph - N/A Rain Light Rain
10:56 AM 35.8 °F 33.0 °F 32.4 °F 87% 30.01 in 5.0 mi SE 3.5 mph - 0.02 in Rain Light Rain
11:20 AM 37.4 °F 32.8 °F 35.6 °F 93% 30.01 in 7.0 mi Variable 5.8 mph - N/A Rain Light Rain
11:56 AM 37.8 °F 33.3 °F 35.4 °F 91% 30.01 in 7.0 mi SE 5.8 mph - 0.00 in Rain Light Rain
12:33 PM 39.2 °F 34.2 °F 35.6 °F 87% 30.01 in 7.0 mi Variable 6.9 mph - N/A   Overcast
12:41 PM 39.2 °F 33.6 °F 35.6 °F 87% 30.01 in 10.0 mi SSE 8.1 mph - N/A   Overcast
12:56 PM 39.0 °F 34.0 °F 36.7 °F 91% 30.01 in 10.0 mi ESE 6.9 mph - 0.00 in   Overcast
1:41 PM 39.2 °F 33.6 °F 35.6 °F 87% 30.01 in 10.0 mi ESE 8.1 mph - N/A   Overcast
1:56 PM 39.4 °F 34.5 °F 35.6 °F 86% 30.01 in 10.0 mi SE 6.9 mph - N/A   Overcast
2:26 PM 39.2 °F 34.2 °F 37.4 °F 93% 30.01 in 10.0 mi SE 6.9 mph - N/A   Overcast
2:56 PM 39.6 °F 34.7 °F 36.3 °F 88% 30.01 in 10.0 mi ESE 6.9 mph - N/A   Overcast
3:37 PM 41.0 °F 36.4 °F 37.4 °F 87% 30.01 in 10.0 mi SE 6.9 mph - N/A Rain Light Rain
3:48 PM 41.0 °F 37.1 °F 37.4 °F 87% 30.01 in 10.0 mi SE 5.8 mph - N/A   Overcast
3:56 PM 40.1 °F 36.1 °F 37.0 °F 89% 30.01 in 10.0 mi SE 5.8 mph - 0.00 in   Overcast
4:42 PM 41.0 °F 37.1 °F 37.4 °F 87% 29.97 in 5.0 mi SE 5.8 mph - N/A Rain Light Rain
4:56 PM 40.6 °F 36.0 °F 37.9 °F 90% 30.00 in 5.0 mi SSE 6.9 mph - 0.00 in Rain Light Rain
5:05 PM 41.0 °F 39.0 °F 37.4 °F 87% 30.00 in 5.0 mi South 3.5 mph - N/A Rain Light Rain
5:41 PM 41.0 °F 36.4 °F 37.4 °F 87% 30.00 in 10.0 mi SE 6.9 mph - N/A   Overcast
5:56 PM 39.9 °F 36.7 °F 37.2 °F 90% 30.00 in 10.0 mi SSE 4.6 mph - 0.00 in   Overcast
6:56 PM 39.7 °F 36.5 °F 27.3 °F 61% 30.00 in 10.0 mi North 4.6 mph - N/A   Overcast
7:56 PM 39.2 °F 35.0 °F 26.1 °F 59% 29.99 in 10.0 mi SE 5.8 mph - N/A   Mostly Cloudy
8:56 PM 38.7 °F - 27.9 °F 65% 29.99 in 10.0 mi Calm Calm - N/A   Mostly Cloudy
9:56 PM 36.5 °F 33.9 °F 34.3 °F 92% 29.97 in 10.0 mi SE 3.5 mph - N/A   Mostly Cloudy
10:56 PM 34.9 °F - 33.1 °F 93% 29.96 in 10.0 mi Calm Calm - N/A   Mostly Cloudy
11:49 PM 32.0 °F - 30.2 °F 93% 29.93 in 4.0 mi Calm Calm - N/A   Partly Cloudy
11:56 PM 31.3 °F 27.9 °F 29.5 °F 93% 29.93 in 6.0 mi South 3.5 mph - N/A   Partly Cloudy